Location: Gwatt
(46.7204°N, 7.6223°E)
Time: 13:23:21
(UTC+00:00)

S-56A Canister/Altair - Pass Details

Date: 26 January 2021
Orbit: 632 x 2501 km, 38.9° (Epoch: 28 February)

Event Time Altitude Azimuth Distance (km) Brightness Sun altitude
Rises 01:58:15 0° 237° (WSW) 3,098 - -50.5°
Reaches altitude 10° 02:01:00 10° 224° (SW) 2,068 - -50.1°
Maximum altitude 02:04:48 26° 167° (SSE) 1,239 - -49.5°
Drops below altitude 10° 02:08:34 10° 110° (ESE) 2,049 - -49.0°
Sets 02:11:17 0° 98° (E) 3,062 - -48.6°
